Station Historical Data
Daily Summary for March 27, 2012 Units:  Metric    English   Both
« Previous Day
Next Day »
Daily Weekly Monthly Yearly Custom
  High: Low: Average:
Temperature: 26.7 °C 11.1 °C 19.1 °C
Dew Point: 13.9 °C 7.9 °C 10.7 °C
Humidity: 81% 40% 60%
Wind Speed: 17.7km/h 1.6km/h 6.8km/h
Wind Gust: 22.5km/h - -
Wind- - ESE
Pressure: 1020.5 hPa 1016.8 hPa -
Precipitation: 0 mm    
Historical Graphs
 
 
Tabular Data for March 27, 2012
Time Temperature Dew Point Pressure Wind Wind Speed Wind Gust Humidity Rainfall Rate (Hourly) Conditions
00:00 16.8 °C 10 °C 1018.2 hPa NE 4.8 km/h 9.7 km/h 64% 0 mm
00:05 16.8 °C 9.9 °C 1018.2 hPa NE 3.2 km/h 6.4 km/h 64% 0 mm
00:11 16.7 °C 10.1 °C 1018.2 hPa NE 3.2 km/h 11.3 km/h 65% 0 mm
00:16 16.6 °C 9.9 °C 1018.2 hPa NNE 4.8 km/h 9.7 km/h 65% 0 mm
00:21 16.6 °C 9.9 °C 1018.2 hPa NE 4.8 km/h 12.9 km/h 65% 0 mm
00:26 16.6 °C 9.8 °C 1017.8 hPa NE 6.4 km/h 11.3 km/h 64% 0 mm
00:31 16.7 °C 9.8 °C 1018.2 hPa ENE 8 km/h 11.3 km/h 64% 0 mm
00:36 16.7 °C 9.8 °C 1017.8 hPa NE 16.1 km/h 16.1 km/h 64% 0 mm
00:41 16.6 °C 9.8 °C 1017.8 hPa North 8 km/h 11.3 km/h 64% 0 mm
00:46 16.5 °C 9.7 °C 1017.8 hPa NE 6.4 km/h 9.7 km/h 64% 0 mm
00:51 16.5 °C 9.4 °C 1017.8 hPa NNE 12.9 km/h 16.1 km/h 63% 0 mm
00:56 16.6 °C 9.5 °C 1017.8 hPa NE 9.7 km/h 12.9 km/h 63% 0 mm
01:01 16.6 °C 9.3 °C 1017.8 hPa NNE 9.7 km/h 16.1 km/h 62% 0 mm
01:06 16.5 °C 9.4 °C 1017.8 hPa NNE 4.8 km/h 12.9 km/h 63% 0 mm
01:11 16.4 °C 9.4 °C 1017.8 hPa NNE 9.7 km/h 14.5 km/h 63% 0 mm
01:16 16.3 °C 9.3 °C 1017.8 hPa NE 9.7 km/h 14.5 km/h 63% 0 mm
01:21 16.3 °C 9.2 °C 1017.8 hPa NE 8 km/h 16.1 km/h 63% 0 mm
01:26 16.2 °C 9.2 °C 1017.8 hPa NE 6.4 km/h 14.5 km/h 63% 0 mm
01:31 16.1 °C 9 °C 1017.8 hPa North 4.8 km/h 14.5 km/h 63% 0 mm
01:36 16 °C 9.2 °C 1017.8 hPa NNE 4.8 km/h 11.3 km/h 64% 0 mm
01:41 16.1 °C 9 °C 1017.8 hPa NE 8 km/h 16.1 km/h 63% 0 mm
01:46 15.9 °C 9.1 °C 1017.8 hPa NNE 6.4 km/h 11.3 km/h 64% 0 mm
01:51 15.8 °C 9 °C 1017.8 hPa NE 8 km/h 11.3 km/h 64% 0 mm
01:57 15.7 °C 8.9 °C 1017.8 hPa NE 8 km/h 9.7 km/h 64% 0 mm
02:01 15.6 °C 9.1 °C 1017.8 hPa NE 8 km/h 9.7 km/h 65% 0 mm
02:07 15.7 °C 8.9 °C 1017.8 hPa NNE 6.4 km/h 14.5 km/h 64% 0 mm
02:12 15.6 °C 9 °C 1017.8 hPa ENE 6.4 km/h 9.7 km/h 65% 0 mm
02:17 15.6 °C 9 °C 1017.8 hPa NE 6.4 km/h 11.3 km/h 65% 0 mm
02:22 15.5 °C 8.9 °C 1017.8 hPa NE 9.7 km/h 11.3 km/h 65% 0 mm
02:27 15.4 °C 8.9 °C 1018.2 hPa NE 9.7 km/h 11.3 km/h 65% 0 mm
02:32 15.4 °C 8.8 °C 1017.8 hPa NE 4.8 km/h 11.3 km/h 65% 0 mm
02:37 15.2 °C 8.9 °C 1018.2 hPa NE 11.3 km/h 11.3 km/h 66% 0 mm
02:42 15.2 °C 8.9 °C 1018.2 hPa NE 6.4 km/h 8 km/h 66% 0 mm
02:47 15.1 °C 8.8 °C 1018.2 hPa NE 6.4 km/h 9.7 km/h 66% 0 mm
02:52 14.9 °C 8.7 °C 1018.2 hPa NNE 3.2 km/h 6.4 km/h 66% 0 mm
02:57 14.8 °C 8.7 °C 1018.2 hPa NE 4.8 km/h 8 km/h 67% 0 mm
03:02 14.7 °C 8.8 °C 1018.2 hPa NE 3.2 km/h 9.7 km/h 68% 0 mm
03:07 14.7 °C 8.8 °C 1018.2 hPa NNE 4.8 km/h 9.7 km/h 68% 0 mm
03:12 14.6 °C 8.8 °C 1018.2 hPa NE 4.8 km/h 6.4 km/h 68% 0 mm
03:17 14.4 °C 8.6 °C 1018.2 hPa NNE 6.4 km/h 6.4 km/h 68% 0 mm
03:22 14.3 °C 8.7 °C 1018.2 hPa NNE 3.2 km/h 4.8 km/h 69% 0 mm
03:27 14.1 °C 8.7 °C 1018.2 hPa NNE 4.8 km/h 8 km/h 70% 0 mm
03:32 14 °C 8.6 °C 1018.2 hPa NE 3.2 km/h 6.4 km/h 70% 0 mm
03:37 13.9 °C 8.5 °C 1018.2 hPa NE 3.2 km/h 6.4 km/h 70% 0 mm
03:42 13.8 °C 8.6 °C 1018.2 hPa NNE 8 km/h 8 km/h 71% 0 mm
03:47 13.7 °C 8.6 °C 1018.2 hPa NNE 4.8 km/h 6.4 km/h 71% 0 mm
03:52 13.6 °C 8.4 °C 1018.2 hPa NE 3.2 km/h 9.7 km/h 71% 0 mm
03:57 13.6 °C 8.4 °C 1017.8 hPa NE 4.8 km/h 9.7 km/h 71% 0 mm
04:02 13.6 °C 8.4 °C 1017.8 hPa NE 6.4 km/h 8 km/h 71% 0 mm
04:07 13.6 °C 8.4 °C 1017.8 hPa NNE 6.4 km/h 9.7 km/h 71% 0 mm
04:12 13.6 °C 8.4 °C 1017.8 hPa NNE 3.2 km/h 6.4 km/h 71% 0 mm
04:17 13.4 °C 8.5 °C 1017.8 hPa NE 4.8 km/h 8 km/h 72% 0 mm
04:22 13.4 °C 8.4 °C 1017.8 hPa NE 3.2 km/h 8 km/h 72% 0 mm
04:27 13.3 °C 8.4 °C 1017.8 hPa NE 3.2 km/h 9.7 km/h 72% 0 mm
04:33 13.2 °C 8.5 °C 1017.8 hPa NNE 3.2 km/h 6.4 km/h 73% 0 mm
04:38 13.2 °C 8.5 °C 1017.5 hPa NE 6.4 km/h 9.7 km/h 73% 0 mm
04:43 13.3 °C 8.6 °C 1017.8 hPa ENE 3.2 km/h 9.7 km/h 73% 0 mm
04:48 13.2 °C 8.5 °C 1017.8 hPa NE 3.2 km/h 8 km/h 73% 0 mm
04:53 13.1 °C 8.4 °C 1017.8 hPa NE 3.2 km/h 6.4 km/h 73% 0 mm
04:58 13.1 °C 8.3 °C 1017.8 hPa NE 6.4 km/h 9.7 km/h 73% 0 mm
05:03 13 °C 8.5 °C 1017.8 hPa NE 4.8 km/h 6.4 km/h 74% 0 mm
05:08 12.9 °C 8.4 °C 1017.8 hPa NE 3.2 km/h 4.8 km/h 74% 0 mm
05:13 12.8 °C 8.3 °C 1017.8 hPa NE 6.4 km/h 6.4 km/h 74% 0 mm
05:18 12.8 °C 8.4 °C 1017.8 hPa NE 3.2 km/h 6.4 km/h 75% 0 mm
05:23 12.7 °C 8.4 °C 1017.8 hPa NE 4.8 km/h 6.4 km/h 75% 0 mm
05:28 12.7 °C 8.4 °C 1017.8 hPa NNE 4.8 km/h 8 km/h 75% 0 mm
05:33 12.7 °C 8.3 °C 1018.2 hPa NNE 3.2 km/h 8 km/h 75% 0 mm
05:38 12.7 °C 8.4 °C 1018.2 hPa NE 4.8 km/h 8 km/h 75% 0 mm
05:43 12.6 °C 8.3 °C 1018.2 hPa NE 4.8 km/h 8 km/h 75% 0 mm
05:49 12.6 °C 8.5 °C 1017.8 hPa NE 6.4 km/h 11.3 km/h 76% 0 mm
05:54 12.6 °C 8.4 °C 1017.8 hPa NE 6.4 km/h 11.3 km/h 76% 0 mm
05:59 12.5 °C 8.4 °C 1018.2 hPa NE 4.8 km/h 9.7 km/h 76% 0 mm
06:04 12.4 °C 8.3 °C 1018.2 hPa NE 3.2 km/h 11.3 km/h 76% 0 mm
06:09 12.3 °C 8.4 °C 1018.2 hPa NE 8 km/h 9.7 km/h 77% 0 mm
06:14 12.3 °C 8.4 °C 1018.5 hPa NE 6.4 km/h 12.9 km/h 77% 0 mm
06:19 12.2 °C 8.3 °C 1018.5 hPa NE 6.4 km/h 8 km/h 77% 0 mm
06:24 12.1 °C 8.4 °C 1018.5 hPa NNE 6.4 km/h 11.3 km/h 78% 0 mm
06:29 12.2 °C 8.4 °C 1018.5 hPa East 3.2 km/h 9.7 km/h 78% 0 mm
06:34 12.2 °C 8.4 °C 1018.5 hPa ENE 8 km/h 11.3 km/h 78% 0 mm
06:39 12.2 °C 8.3 °C 1018.5 hPa NE 6.4 km/h 9.7 km/h 77% 0 mm
06:44 12.2 °C 8.3 °C 1018.8 hPa NE 4.8 km/h 12.9 km/h 77% 0 mm
06:49 12.1 °C 8.3 °C 1018.8 hPa NE 6.4 km/h 6.4 km/h 78% 0 mm
06:54 12 °C 8.3 °C 1018.8 hPa NE 6.4 km/h 6.4 km/h 78% 0 mm
06:59 11.9 °C 8.2 °C 1018.8 hPa ENE 3.2 km/h 3.2 km/h 78% 0 mm
07:04 11.8 °C 8.1 °C 1019.2 hPa NE 3.2 km/h 4.8 km/h 78% 0 mm
07:09 11.8 °C 8.3 °C 1019.2 hPa NNE 1.6 km/h 3.2 km/h 79% 0 mm
07:14 11.6 °C 8.1 °C 1019.2 hPa NNE 1.6 km/h 3.2 km/h 79% 0 mm
07:19 11.5 °C 8 °C 1019.2 hPa NNE 1.6 km/h 3.2 km/h 79% 0 mm
07:24 11.4 °C 8.1 °C 1019.5 hPa NE 3.2 km/h 3.2 km/h 80% 0 mm
07:29 11.3 °C 7.9 °C 1019.5 hPa NNE 3.2 km/h 3.2 km/h 80% 0 mm
07:34 11.3 °C 7.9 °C 1019.5 hPa NE 4.8 km/h 4.8 km/h 80% 0 mm
07:39 11.2 °C 8.1 °C 1019.5 hPa NE 3.2 km/h 4.8 km/h 81% 0 mm
07:44 11.2 °C 8.1 °C 1019.5 hPa NE 3.2 km/h 4.8 km/h 81% 0 mm
07:49 11.2 °C 8.1 °C 1019.5 hPa NE 4.8 km/h 4.8 km/h 81% 0 mm
07:54 11.1 °C 8 °C 1019.5 hPa NNE 3.2 km/h 4.8 km/h 81% 0 mm
07:59 11.2 °C 8.1 °C 1019.9 hPa NE 3.2 km/h 4.8 km/h 81% 0 mm
08:04 11.2 °C 8.1 °C 1019.9 hPa NE 3.2 km/h 3.2 km/h 81% 0 mm
08:09 11.3 °C 8.2 °C 1019.9 hPa NE 4.8 km/h 4.8 km/h 81% 0 mm
08:14 11.6 °C 8.3 °C 1019.9 hPa NE 3.2 km/h 4.8 km/h 80% 0 mm
08:19 11.9 °C 8.4 °C 1019.9 hPa East 3.2 km/h 4.8 km/h 79% 0 mm
08:25 12 °C 8.5 °C 1019.9 hPa ENE 1.6 km/h 6.4 km/h 79% 0 mm
08:30 12.1 °C 8.3 °C 1020.2 hPa ENE 3.2 km/h 4.8 km/h 78% 0 mm
08:35 12.2 °C 8.4 °C 1020.2 hPa NE 4.8 km/h 6.4 km/h 78% 0 mm
08:40 12.2 °C 8.4 °C 1020.2 hPa NNE 4.8 km/h 8 km/h 78% 0 mm
08:45 12.3 °C 8.6 °C 1020.2 hPa NE 8 km/h 8 km/h 78% 0 mm
08:50 12.4 °C 8.7 °C 1020.2 hPa NE 6.4 km/h 6.4 km/h 78% 0 mm
08:55 12.6 °C 8.8 °C 1020.2 hPa NE 4.8 km/h 8 km/h 78% 0 mm
09:00 12.7 °C 8.8 °C 1020.5 hPa ENE 4.8 km/h 9.7 km/h 77% 0 mm
09:05 12.9 °C 8.8 °C 1020.5 hPa NE 3.2 km/h 9.7 km/h 76% 0 mm
09:10 13.2 °C 9.1 °C 1020.5 hPa East 6.4 km/h 8 km/h 76% 0 mm
09:15 13.5 °C 9.2 °C 1020.5 hPa ESE 3.2 km/h 9.7 km/h 75% 0 mm
09:20 13.8 °C 9.2 °C 1020.5 hPa NE 4.8 km/h 9.7 km/h 74% 0 mm
09:25 14.1 °C 9.6 °C 1020.5 hPa East 6.4 km/h 8 km/h 74% 0 mm
09:30 14.4 °C 9.9 °C 1020.5 hPa ENE 6.4 km/h 9.7 km/h 74% 0 mm
09:35 14.7 °C 10.1 °C 1020.5 hPa East 11.3 km/h 11.3 km/h 74% 0 mm
09:40 14.9 °C 9.7 °C 1020.5 hPa East 9.7 km/h 14.5 km/h 71% 0 mm
09:42 14.9 °C 9.6 °C 1020.2 hPa East 8 km/h 14.5 km/h 70% 0 mm
09:47 15.1 °C 9.3 °C 1020.2 hPa East 6.4 km/h 9.7 km/h 68% 0 mm
09:52 15.4 °C 10.2 °C 1020.2 hPa East 6.4 km/h 14.5 km/h 71% 0 mm
09:57 15.7 °C 10.1 °C 1020.2 hPa ESE 4.8 km/h 11.3 km/h 69% 0 mm
10:02 16.1 °C 9.9 °C 1020.2 hPa East 6.4 km/h 11.3 km/h 67% 0 mm
10:07 16.3 °C 10.6 °C 1020.2 hPa ESE 3.2 km/h 8 km/h 69% 0 mm
10:12 16.7 °C 10.3 °C 1020.2 hPa East 4.8 km/h 8 km/h 66% 0 mm
10:17 16.9 °C 10.1 °C 1020.2 hPa East 6.4 km/h 8 km/h 64% 0 mm
10:22 17.2 °C 10.8 °C 1020.2 hPa ESE 6.4 km/h 8 km/h 66% 0 mm
10:27 17.4 °C 10.5 °C 1020.5 hPa ESE 4.8 km/h 9.7 km/h 64% 0 mm
10:32 17.6 °C 10.4 °C 1020.5 hPa ESE 6.4 km/h 8 km/h 63% 0 mm
10:37 17.7 °C 10.3 °C 1020.5 hPa ESE 3.2 km/h 6.4 km/h 62% 0 mm
10:42 17.9 °C 10.6 °C 1020.5 hPa SE 4.8 km/h 4.8 km/h 62% 0 mm
10:43 18 °C 10.6 °C 1020.5 hPa ESE 3.2 km/h 4.8 km/h 62% 0 mm
10:48 18.4 °C 11.1 °C 1020.5 hPa ESE 4.8 km/h 6.4 km/h 62% 0 mm
10:53 18.6 °C 10.9 °C 1020.5 hPa ESE 3.2 km/h 8 km/h 61% 0 mm
10:59 18.9 °C 11 °C 1020.5 hPa East 9.7 km/h 11.3 km/h 60% 0 mm
11:04 19.2 °C 10.7 °C 1020.5 hPa SE 12.9 km/h 16.1 km/h 58% 0 mm
11:09 19.4 °C 11.4 °C 1020.5 hPa ESE 9.7 km/h 16.1 km/h 60% 0 mm
11:14 19.6 °C 11.9 °C 1020.5 hPa ESE 14.5 km/h 14.5 km/h 61% 0 mm
11:19 19.8 °C 11 °C 1020.5 hPa SSE 9.7 km/h 12.9 km/h 57% 0 mm
11:24 20.1 °C 11.6 °C 1020.5 hPa SSW 8 km/h 11.3 km/h 58% 0 mm
11:29 20.4 °C 12.2 °C 1020.5 hPa SE 16.1 km/h 16.1 km/h 59% 0 mm
11:34 20.4 °C 10.8 °C 1020.5 hPa ESE 17.7 km/h 17.7 km/h 54% 0 mm
11:39 20.5 °C 11.2 °C 1020.5 hPa SSE 14.5 km/h 20.9 km/h 55% 0 mm
11:44 20.7 °C 11.7 °C 1020.5 hPa ESE 14.5 km/h 19.3 km/h 56% 0 mm
11:49 20.9 °C 12.1 °C 1020.5 hPa SSE 11.3 km/h 19.3 km/h 57% 0 mm
11:54 21.1 °C 12.3 °C 1020.5 hPa SE 9.7 km/h 12.9 km/h 57% 0 mm
11:59 21.1 °C 11.4 °C 1020.5 hPa SSE 8 km/h 17.7 km/h 54% 0 mm
12:04 21.1 °C 11.7 °C 1020.5 hPa SSE 9.7 km/h 19.3 km/h 55% 0 mm
12:09 21.2 °C 11.5 °C 1020.5 hPa SE 12.9 km/h 20.9 km/h 54% 0 mm
12:14 21.1 °C 11.2 °C 1020.5 hPa SE 8 km/h 17.7 km/h 53% 0 mm
12:19 21.4 °C 12 °C 1020.2 hPa SSE 9.7 km/h 14.5 km/h 55% 0 mm
12:24 21.4 °C 12.6 °C 1020.2 hPa SE 12.9 km/h 14.5 km/h 57% 0 mm
12:29 21.6 °C 11.3 °C 1020.2 hPa ESE 11.3 km/h 19.3 km/h 52% 0 mm
12:34 21.7 °C 12 °C 1020.2 hPa ESE 16.1 km/h 16.1 km/h 54% 0 mm
12:39 21.8 °C 12.9 °C 1020.2 hPa SSE 6.4 km/h 11.3 km/h 57% 0 mm
12:44 22.1 °C 11.8 °C 1020.2 hPa South 9.7 km/h 19.3 km/h 52% 0 mm
12:49 22.3 °C 12.3 °C 1020.2 hPa SE 8 km/h 14.5 km/h 53% 0 mm
12:54 22.7 °C 12.7 °C 1020.2 hPa SE 6.4 km/h 16.1 km/h 53% 0 mm
12:59 22.9 °C 12.8 °C 1020.2 hPa SSE 9.7 km/h 16.1 km/h 53% 0 mm
13:04 22.8 °C 11.9 °C 1020.2 hPa ESE 11.3 km/h 16.1 km/h 50% 0 mm
13:09 22.8 °C 12.2 °C 1020.2 hPa SSE 9.7 km/h 14.5 km/h 51% 0 mm
13:14 22.9 °C 12.5 °C 1019.9 hPa SSE 8 km/h 16.1 km/h 52% 0 mm
13:20 23.1 °C 12.7 °C 1019.9 hPa ESE 11.3 km/h 11.3 km/h 52% 0 mm
13:25 23.3 °C 12.6 °C 1019.9 hPa East 8 km/h 9.7 km/h 51% 0 mm
13:30 23.4 °C 12.7 °C 1019.5 hPa SSE 9.7 km/h 12.9 km/h 51% 0 mm
13:35 23.7 °C 12.1 °C 1019.5 hPa ESE 16.1 km/h 16.1 km/h 48% 0 mm
13:40 23.6 °C 12.9 °C 1019.5 hPa SE 9.7 km/h 11.3 km/h 51% 0 mm
13:45 23.9 °C 12.3 °C 1019.5 hPa South 8 km/h 11.3 km/h 48% 0 mm
13:50 23.9 °C 13.2 °C 1019.2 hPa SE 8 km/h 16.1 km/h 51% 0 mm
13:55 24.1 °C 12.7 °C 1019.2 hPa SE 14.5 km/h 16.1 km/h 49% 0 mm
14:00 24.1 °C 12.1 °C 1019.2 hPa SSE 8 km/h 16.1 km/h 47% 0 mm
14:05 24.3 °C 12.9 °C 1019.2 hPa SSE 17.7 km/h 17.7 km/h 49% 0 mm
14:06 24.2 °C 12.2 °C 1019.2 hPa SE 14.5 km/h 17.7 km/h 47% 0 mm
14:11 24.3 °C 13.8 °C 1019.2 hPa SSE 8 km/h 16.1 km/h 52% 0 mm
14:16 24.3 °C 13.2 °C 1019.2 hPa SE 12.9 km/h 12.9 km/h 50% 0 mm
14:21 24.4 °C 12.4 °C 1019.2 hPa South 4.8 km/h 17.7 km/h 47% 0 mm
14:26 24.7 °C 13.9 °C 1018.8 hPa SSE 12.9 km/h 14.5 km/h 51% 0 mm
14:31 24.7 °C 13.6 °C 1018.8 hPa ESE 9.7 km/h 17.7 km/h 50% 0 mm
14:37 24.7 °C 12.6 °C 1018.8 hPa SE 9.7 km/h 17.7 km/h 47% 0 mm
14:42 24.6 °C 13.2 °C 1018.8 hPa SSE 14.5 km/h 22.5 km/h 49% 0 mm
14:47 24.6 °C 13.2 °C 1018.8 hPa SE 12.9 km/h 17.7 km/h 49% 0 mm
14:52 24.7 °C 13.9 °C 1018.8 hPa SSE 9.7 km/h 14.5 km/h 51% 0 mm
14:57 25.1 °C 13 °C 1018.8 hPa South 3.2 km/h 11.3 km/h 47% 0 mm
15:02 25.1 °C 12.7 °C 1018.8 hPa SW 6.4 km/h 16.1 km/h 46% 0 mm
15:07 25.3 °C 12.5 °C 1018.8 hPa South 8 km/h 14.5 km/h 45% 0 mm
15:12 25.2 °C 13.1 °C 1018.8 hPa SW 12.9 km/h 12.9 km/h 47% 0 mm
15:17 25.3 °C 12.5 °C 1018.5 hPa SW 11.3 km/h 12.9 km/h 45% 0 mm
15:22 25.4 °C 11.9 °C 1018.5 hPa SSW 8 km/h 9.7 km/h 43% 0 mm
15:27 25.6 °C 12.1 °C 1018.5 hPa SSE 9.7 km/h 22.5 km/h 43% 0 mm
15:32 25.8 °C 13.6 °C 1018.5 hPa SSW 4.8 km/h 12.9 km/h 47% 0 mm
15:37 25.8 °C 12.9 °C 1018.2 hPa SSE 6.4 km/h 14.5 km/h 45% 0 mm
15:42 25.9 °C 12.4 °C 1018.2 hPa SSE 8 km/h 12.9 km/h 43% 0 mm
15:47 25.7 °C 12.9 °C 1018.2 hPa South 9.7 km/h 11.3 km/h 45% 0 mm
15:52 25.8 °C 12.3 °C 1018.2 hPa ESE 4.8 km/h 8 km/h 43% 0 mm
15:57 25.7 °C 11.5 °C 1018.2 hPa SSE 9.7 km/h 16.1 km/h 41% 0 mm
16:02 25.7 °C 12.5 °C 1018.2 hPa SSE 6.4 km/h 14.5 km/h 44% 0 mm
16:07 25.8 °C 11.9 °C 1018.2 hPa SSE 12.9 km/h 14.5 km/h 42% 0 mm
16:12 25.8 °C 12.7 °C 1017.8 hPa SSE 11.3 km/h 16.1 km/h 44% 0 mm
16:18 25.9 °C 13.1 °C 1017.8 hPa ESE 4.8 km/h 9.7 km/h 45% 0 mm
16:23 26.1 °C 12.6 °C 1017.8 hPa ESE 4.8 km/h 4.8 km/h 43% 0 mm
16:28 26.3 °C 12.7 °C 1017.8 hPa ESE 6.4 km/h 16.1 km/h 43% 0 mm
16:33 26.1 °C 11.8 °C 1017.8 hPa SE 8 km/h 11.3 km/h 41% 0 mm
16:38 26.1 °C 12.5 °C 1017.8 hPa SW 6.4 km/h 9.7 km/h 43% 0 mm
16:43 26.3 °C 12.3 °C 1017.8 hPa SSE 4.8 km/h 12.9 km/h 42% 0 mm
16:48 26.2 °C 11.9 °C 1017.8 hPa South 4.8 km/h 12.9 km/h 41% 0 mm
16:53 26.1 °C 12.6 °C 1017.8 hPa ESE 8 km/h 11.3 km/h 43% 0 mm
16:58 26.2 °C 12.7 °C 1017.8 hPa SSW 4.8 km/h 6.4 km/h 43% 0 mm
17:03 26.2 °C 12.3 °C 1017.8 hPa ESE 6.4 km/h 12.9 km/h 42% 0 mm
17:08 26.2 °C 12.7 °C 1017.8 hPa SSE 14.5 km/h 17.7 km/h 43% 0 mm
17:13 26.2 °C 13.3 °C 1017.8 hPa SSE 12.9 km/h 16.1 km/h 45% 0 mm
17:18 26.3 °C 12.8 °C 1017.5 hPa SE 6.4 km/h 11.3 km/h 43% 0 mm
17:23 26.5 °C 12.6 °C 1017.5 hPa SSW 4.8 km/h 12.9 km/h 42% 0 mm
17:28 26.6 °C 12.3 °C 1017.5 hPa SE 1.6 km/h 11.3 km/h 41% 0 mm
17:33 26.7 °C 12.3 °C 1017.5 hPa WSW 8 km/h 14.5 km/h 41% 0 mm
17:39 26.6 °C 12.6 °C 1017.5 hPa SSE 9.7 km/h 16.1 km/h 42% 0 mm
17:44 26.6 °C 12.7 °C 1017.5 hPa South 11.3 km/h 12.9 km/h 42% 0 mm
17:49 26.4 °C 11.8 °C 1017.5 hPa SE 6.4 km/h 16.1 km/h 40% 0 mm
17:54 26.4 °C 12.5 °C 1017.2 hPa SE 14.5 km/h 19.3 km/h 42% 0 mm
17:59 26.5 °C 11.8 °C 1017.2 hPa SE 4.8 km/h 14.5 km/h 40% 0 mm
18:04 26.6 °C 13.7 °C 1017.2 hPa SE 12.9 km/h 14.5 km/h 45% 0 mm
18:09 26.4 °C 12.4 °C 1017.2 hPa ESE 12.9 km/h 16.1 km/h 42% 0 mm
18:14 26.4 °C 12.4 °C 1017.2 hPa South 9.7 km/h 14.5 km/h 42% 0 mm
18:19 26.4 °C 12.4 °C 1017.2 hPa SSE 12.9 km/h 12.9 km/h 42% 0 mm
18:24 26.3 °C 12.1 °C 1017.2 hPa SE 11.3 km/h 17.7 km/h 41% 0 mm
18:29 26.2 °C 11.6 °C 1017.2 hPa SSE 6.4 km/h 14.5 km/h 40% 0 mm
18:34 26.3 °C 12.4 °C 1017.2 hPa SE 12.9 km/h 12.9 km/h 42% 0 mm
18:39 26.2 °C 12.3 °C 1016.8 hPa South 9.7 km/h 11.3 km/h 42% 0 mm
18:44 26.2 °C 11.9 °C 1016.8 hPa SE 6.4 km/h 11.3 km/h 41% 0 mm
18:49 26.2 °C 12.3 °C 1016.8 hPa SSE 4.8 km/h 8 km/h 42% 0 mm
18:54 26.1 °C 11.8 °C 1016.8 hPa SSE 9.7 km/h 14.5 km/h 41% 0 mm
18:59 25.9 °C 11.7 °C 1016.8 hPa SSE 8 km/h 12.9 km/h 41% 0 mm
19:04 25.7 °C 11.8 °C 1016.8 hPa SE 11.3 km/h 12.9 km/h 42% 0 mm
19:09 25.6 °C 12.4 °C 1016.8 hPa SSE 8 km/h 11.3 km/h 44% 0 mm
19:14 25.4 °C 11.9 °C 1016.8 hPa SE 6.4 km/h 8 km/h 43% 0 mm
19:19 25.3 °C 11.9 °C 1016.8 hPa SSE 6.4 km/h 8 km/h 43% 0 mm
19:24 25.2 °C 12.4 °C 1016.8 hPa SSE 3.2 km/h 6.4 km/h 45% 0 mm
19:29 25.1 °C 12.3 °C 1016.8 hPa ESE 4.8 km/h 4.8 km/h 45% 0 mm
19:34 25 °C 12.3 °C 1016.8 hPa SE 4.8 km/h 6.4 km/h 45% 0 mm
19:39 24.8 °C 12.4 °C 1016.8 hPa SE 4.8 km/h 6.4 km/h 46% 0 mm
19:45 24.6 °C 12.5 °C 1016.8 hPa ESE 4.8 km/h 4.8 km/h 47% 0 mm
19:50 24.3 °C 12.6 °C 1016.8 hPa SE 6.4 km/h 6.4 km/h 48% 0 mm
19:55 23.9 °C 12.3 °C 1016.8 hPa SE 4.8 km/h 6.4 km/h 48% 0 mm
20:00 23.7 °C 12.7 °C 1016.8 hPa ESE 4.8 km/h 6.4 km/h 50% 0 mm
20:05 23.2 °C 12.8 °C 1016.8 hPa ESE 4.8 km/h 6.4 km/h 52% 0 mm
20:10 22.8 °C 12.4 °C 1016.8 hPa ESE 4.8 km/h 4.8 km/h 52% 0 mm
20:15 22.6 °C 12.6 °C 1016.8 hPa ESE 3.2 km/h 4.8 km/h 53% 0 mm
20:20 22.4 °C 12.3 °C 1016.8 hPa ESE 4.8 km/h 4.8 km/h 53% 0 mm
20:25 22.2 °C 12.2 °C 1016.8 hPa East 3.2 km/h 4.8 km/h 53% 0 mm
20:30 22.1 °C 12.3 °C 1016.8 hPa ESE 4.8 km/h 4.8 km/h 54% 0 mm
20:35 22 °C 12 °C 1016.8 hPa ESE 4.8 km/h 4.8 km/h 53% 0 mm
20:40 22.1 °C 11.8 °C 1016.8 hPa SE 3.2 km/h 4.8 km/h 52% 0 mm
20:45 22 °C 12 °C 1016.8 hPa SE 3.2 km/h 4.8 km/h 53% 0 mm
20:50 22 °C 11.7 °C 1016.8 hPa ESE 3.2 km/h 6.4 km/h 52% 0 mm
20:55 21.9 °C 11.9 °C 1016.8 hPa ESE 4.8 km/h 4.8 km/h 53% 0 mm
21:00 21.7 °C 11.7 °C 1016.8 hPa ESE 4.8 km/h 6.4 km/h 53% 0 mm
21:05 21.7 °C 11.7 °C 1016.8 hPa SE 4.8 km/h 4.8 km/h 53% 0 mm
21:10 21.8 °C 11.6 °C 1017.2 hPa ESE 4.8 km/h 8 km/h 52% 0 mm
21:15 21.9 °C 11.6 °C 1016.8 hPa SE 4.8 km/h 6.4 km/h 52% 0 mm
21:20 22 °C 11.4 °C 1017.2 hPa SE 3.2 km/h 6.4 km/h 51% 0 mm
21:25 21.9 °C 11.6 °C 1017.2 hPa ESE 3.2 km/h 6.4 km/h 52% 0 mm
21:30 21.7 °C 11.4 °C 1017.2 hPa ESE 4.8 km/h 6.4 km/h 52% 0 mm
21:35 21.6 °C 11.6 °C 1017.2 hPa ESE 4.8 km/h 8 km/h 53% 0 mm
21:40 21.7 °C 11.4 °C 1017.5 hPa ESE 4.8 km/h 6.4 km/h 52% 0 mm
21:45 21.7 °C 11.4 °C 1017.5 hPa ESE 4.8 km/h 6.4 km/h 52% 0 mm
21:48 21.7 °C 11.4 °C 1017.5 hPa ESE 4.8 km/h 6.4 km/h 52% 0 mm
21:53 21.6 °C 11.3 °C 1017.5 hPa SE 6.4 km/h 11.3 km/h 52% 0 mm
21:58 21.6 °C 11.6 °C 1017.5 hPa ESE 9.7 km/h 11.3 km/h 53% 0 mm
22:03 21.5 °C 11.6 °C 1017.5 hPa SE 6.4 km/h 9.7 km/h 53% 0 mm
22:08 21.4 °C 11.8 °C 1017.5 hPa SE 9.7 km/h 9.7 km/h 54% 0 mm
22:13 21.3 °C 11.7 °C 1017.5 hPa SE 6.4 km/h 9.7 km/h 54% 0 mm
22:18 21.2 °C 11.5 °C 1017.5 hPa SE 9.7 km/h 9.7 km/h 54% 0 mm
22:23 21.1 °C 11.7 °C 1017.5 hPa SE 6.4 km/h 9.7 km/h 55% 0 mm
22:28 20.9 °C 11.6 °C 1017.5 hPa SE 6.4 km/h 8 km/h 55% 0 mm
22:33 20.7 °C 11.7 °C 1017.8 hPa SE 4.8 km/h 8 km/h 56% 0 mm
22:38 20.6 °C 11.8 °C 1017.8 hPa SE 6.4 km/h 9.7 km/h 57% 0 mm
22:43 20.3 °C 11.8 °C 1017.8 hPa SE 4.8 km/h 6.4 km/h 58% 0 mm
22:48 20 °C 11.8 °C 1017.5 hPa SE 4.8 km/h 4.8 km/h 59% 0 mm
22:53 19.8 °C 11.6 °C 1017.8 hPa SSE 3.2 km/h 6.4 km/h 59% 0 mm
22:58 19.6 °C 11.7 °C 1017.8 hPa SSE 4.8 km/h 4.8 km/h 60% 0 mm
23:03 19.5 °C 11.6 °C 1017.8 hPa SE 4.8 km/h 4.8 km/h 60% 0 mm
23:08 19.4 °C 11.4 °C 1017.8 hPa SSE 3.2 km/h 6.4 km/h 60% 0 mm
23:13 19.3 °C 11.6 °C 1017.8 hPa SSW 1.6 km/h 8 km/h 61% 0 mm
23:18 19.3 °C 11.6 °C 1017.8 hPa South 3.2 km/h 6.4 km/h 61% 0 mm
23:23 19.2 °C 11.6 °C 1017.8 hPa South 4.8 km/h 6.4 km/h 61% 0 mm
23:28 19.3 °C 11.6 °C 1017.8 hPa SSE 3.2 km/h 4.8 km/h 61% 0 mm
23:33 19.3 °C 11.6 °C 1017.8 hPa SSE 3.2 km/h 4.8 km/h 61% 0 mm
23:39 19.3 °C 11.6 °C 1017.8 hPa SE 3.2 km/h 4.8 km/h 61% 0 mm
23:44 19.3 °C 11.6 °C 1017.8 hPa SSE 3.2 km/h 4.8 km/h 61% 0 mm
23:49 19.2 °C 11.5 °C 1017.8 hPa SSE 4.8 km/h 4.8 km/h 61% 0 mm
23:54 19.2 °C 11.6 °C 1017.8 hPa SSW 6.4 km/h 6.4 km/h 61% 0 mm
23:59 19.2 °C 11.8 °C 1017.8 hPa SSE 3.2 km/h 6.4 km/h 62% 0 mm
Compliments of Weather Underground